Location: Waco, TX
(31.5480°N, 97.1670°W)
Time: 17:53:14
(UTC-06:00)

ISS - Pass Details

Date: 18 January 2019
Orbit: 404 x 410 km, 51.6° (Epoch: 24 January)

Event Time Altitude Azimuth Distance (km) Brightness Sun altitude
Rises 18:46:05 0° 180° (S) 2,311 0.2 -11.9°
Reaches altitude 10° 18:49:25 10° 143° (SE) 1,459 -1.2 -12.6°
Maximum altitude 18:50:26 11° 125° (SE) 1,394 -1.5 -12.8°
Enters shadow 18:50:28 11° 125° (SE) 1,394 -1.5 -12.8°
Drops below altitude 10° 18:51:27 10° 107° (ESE) 1,463 - -13.0°
Sets 18:54:49 0° 70° (ENE) 2,330 - -13.7°
